TimeHST,TemperatureF,Dew PointF,Humidity,Sea Level PressureIn,VisibilityMPH,Wind Direction,Wind SpeedMPH,Gust SpeedMPH,PrecipitationIn,Events,Conditions,WindDirDegrees,DateUTC
12:53 AM,73.0,60.1,64,29.98,10.0,ESE,5.8,-,N/A,,Clear,110,2012-12-21 10:53:00
1:53 AM,72.0,60.1,66,29.96,10.0,NE,6.9,-,N/A,,Mostly Cloudy,40,2012-12-21 11:53:00
2:53 AM,72.0,60.1,66,29.95,10.0,East,5.8,-,N/A,,Clear,80,2012-12-21 12:53:00
3:53 AM,72.0,61.0,68,29.94,10.0,East,4.6,-,N/A,,Partly Cloudy,100,2012-12-21 13:53:00
4:53 AM,71.1,60.1,68,29.94,10.0,NNE,6.9,-,N/A,,Clear,30,2012-12-21 14:53:00
5:53 AM,70.0,57.9,65,29.95,10.0,NNE,5.8,-,N/A,,Clear,30,2012-12-21 15:53:00
6:53 AM,71.1,60.1,68,29.97,10.0,ENE,4.6,-,N/A,,Mostly Cloudy,70,2012-12-21 16:53:00
7:53 AM,73.0,61.0,66,29.98,10.0,NE,3.5,-,N/A,,Partly Cloudy,50,2012-12-21 17:53:00
8:53 AM,77.0,57.9,52,30.00,10.0,North,8.1,-,N/A,,Clear,10,2012-12-21 18:53:00
9:53 AM,78.1,60.1,54,30.01,10.0,North,4.6,-,N/A,,Mostly Cloudy,360,2012-12-21 19:53:00
10:53 AM,79.0,62.1,56,30.00,10.0,ESE,3.5,-,N/A,,Overcast,110,2012-12-21 20:53:00
11:53 AM,79.0,63.0,58,29.97,10.0,West,3.5,-,N/A,,Overcast,280,2012-12-21 21:53:00
12:53 PM,80.1,63.0,56,29.94,10.0,South,9.2,-,N/A,,Mostly Cloudy,190,2012-12-21 22:53:00
1:53 PM,82.0,64.0,54,29.92,10.0,South,10.4,-,N/A,,Scattered Clouds,190,2012-12-21 23:53:00
2:53 PM,80.1,63.0,56,29.92,10.0,South,8.1,-,N/A,,Mostly Cloudy,190,2012-12-22 00:53:00
3:53 PM,80.1,64.0,58,29.92,10.0,SW,6.9,-,N/A,,Partly Cloudy,230,2012-12-22 01:53:00
4:53 PM,79.0,64.0,60,29.93,10.0,South,8.1,-,N/A,,Overcast,190,2012-12-22 02:53:00
5:53 PM,77.0,64.0,64,29.95,10.0,South,6.9,-,N/A,,Scattered Clouds,180,2012-12-22 03:53:00
6:53 PM,77.0,64.9,66,29.98,10.0,SSW,4.6,-,N/A,,Clear,200,2012-12-22 04:53:00
7:53 PM,75.9,64.0,67,30.00,10.0,SSW,4.6,-,N/A,,Clear,200,2012-12-22 05:53:00
8:53 PM,73.9,62.1,66,30.01,10.0,SE,4.6,-,N/A,,Clear,130,2012-12-22 06:53:00
9:53 PM,73.0,60.1,64,30.01,10.0,ESE,5.8,-,N/A,,Clear,120,2012-12-22 07:53:00
10:53 PM,73.0,59.0,61,30.01,10.0,ESE,8.1,-,N/A,,Clear,120,2012-12-22 08:53:00
11:53 PM,73.0,60.1,64,30.01,10.0,ESE,8.1,-,N/A,,Clear,110,2012-12-22 09:53:00